Погода в Кандабулаке

Россия / Самарская область     53°58′16″N   50°44′02″E
темп.,
°C
ветер,
м/с
пор.,
м/с
влажн.,
%
обл.,
%
осадки,
мм/ч
давл.,
гПа
погр.,
м
5 августа, чт
чт501:00+17ссз38935 0.1 1012237
04:00+16ссз389630 0.1 1013193
07:00+17ссз510870 0.0 1013377
10:00+24ссз684417 0.0 10131497
13:00+28ссз762972 0.0 10132923
16:00+27сз762614 0.0 10132760
19:00+24с794055 0.0 10141245
22:00+20ссз495368 0.0 1015364
6 августа, пт
пт601:00+16ссз36670 0.0 1016105
04:00+15ссз34675 0.0 101669
07:00+16ссз47580 0.0 1017227
10:00+22ссз443996 0.0 10171340
13:00+26с44299 0.0 10162116
16:00+27ссз55255 0.0 10152325
19:00+25с46273 0.0 1016488
22:00+18с494683 0.0 1016138
7 августа, сб
сб701:00+16св33525 0.0 101729
04:00+15всв22535 0.0 101711
07:00+18в224350 0.0 1018119
10:00+24всв22305 0.0 10181114
13:00+28ссв122540 0.0 10171743
16:00+28ссв43267 0.0 10171789
19:00+25ссв45330 0.0 1017474
22:00+19всв410464 0.0 1018190
8 августа, вс
вс801:00+16всв365211 0.0 1019110
04:00+16в22545 0.0 102020
07:00+19в234943 0.0 1020152
10:00+25всв333512 0.0 1020813
13:00+29ссв342949 0.0 10191702
16:00+30ссв442890 0.0 10191971
19:00+28ссв453330 0.0 1019415
22:00+21всв3645100 0.0 102093
9 августа, пн
пн901:00+19в364587 0.0 1021102
04:00+17вюв2243100 0.0 102113
07:00+20вюв2336100 0.0 1022115
10:00+24вюв2231100 0.0 1021496
13:00+29вюв2227100 0.0 10211153
16:00+31всв232479 0.0 10201913
19:00+29вюв223064 0.0 101927
22:00+23юв22406 0.0 101914